Chicago Executive, IL

8:35 PM CST on December 09, 2019 (GMT -0600)
Chicago Executive

Weather History for KPWK - October, 2019

Change the Weather History Date:

Wednesday, October 16, 2019

  Actual Average Record
Temperature  
Mean Temperature 48 °F 52 °F  
Max Temperature 54 °F 62 °F 79 °F (1998)
Min Temperature 42 °F 43 °F 35 °F (2003)
Degree Days  
Heating Degree Days 17 13  
Month to date heating degree days 148 173  
Since 1 July heating degree days 155 285  
Cooling Degree Days 0 0  
Month to date cooling degree days 13 11  
Year to date cooling degree days 996 789  
Moisture  
Dew Point 35 °F    
Average Humidity 62    
Maximum Humidity 74    
Minimum Humidity 50    
Precipitation  
Precipitation 0.00 in 0.09 in 0.50 in (2016)
Month to date precipitation 2.31 1.58  
Year to date precipitation 39.00 27.27  
Sea Level Pressure  
Sea Level Pressure 29.91 in    
Wind  
Wind Speed 13 mph ()    
Max Wind Speed 25 mph    
Max Gust Speed 40 mph    
Visibility 10.0 miles    
Events      
T = Trace of Precipitation, MM = Missing Value Source: Averaged Metar Reports

Daily Weather History Graph

Daily Weather History Graph

Search for Another Location

Airport or City:

Astronomy

Oct. 16, 2019 Rise Set
Actual Time 7:05 AM CDT 6:08 PM CDT
Civil Twilight 6:36 AM CDT 6:36 PM CDT
Nautical Twilight 6:04 AM CDT 7:09 PM CDT
Astronomical Twilight 5:31 AM CDT 7:41 PM CDT
Moon 7:59 PM CDT (10/16) 9:37 AM CDT (10/16)
Length of Visible Light 11h 59m
Length of Day
11h 03m
Waning Gibbous, 92% of the Moon is Illuminated
Oct 16
Waning Gibbous
Oct 21
Last Quarter
Oct 27
New
Nov 4
First Quarter
Nov 12
Full

Hourly Weather History & Observations

Time (CDT) Temp. Windchill Dew Point Humidity Pressure Visibility Wind Dir Wind Speed Gust Speed Precip Events Conditions
12:52 AM 48.0 °F - 36.0 °F 63% 29.79 in 10.0 mi WNW 13.8 mph 24.2 mph N/A   Mostly Cloudy
1:52 AM 48.9 °F - 34.0 °F 56% 29.80 in 10.0 mi WNW 15.0 mph 29.9 mph N/A   Overcast
2:52 AM 48.0 °F - 35.1 °F 61% 29.80 in 10.0 mi WNW 13.8 mph 24.2 mph N/A   Overcast
3:37 AM 46.9 °F - 35.1 °F 63% 29.80 in 10.0 mi NW 15.0 mph 24.2 mph N/A   Overcast
3:52 AM 46.9 °F - 35.1 °F 63% 29.81 in 10.0 mi NW 17.3 mph 28.8 mph N/A   Overcast
4:52 AM 46.0 °F 39.0 °F 36.0 °F 68% 29.82 in 10.0 mi NW 17.3 mph 33.4 mph N/A   Overcast
5:52 AM 46.0 °F 38.3 °F 37.0 °F 71% 29.83 in 10.0 mi NW 20.7 mph 32.2 mph N/A   Overcast
6:52 AM 46.0 °F 38.8 °F 37.0 °F 71% 29.84 in 10.0 mi NW 18.4 mph 29.9 mph N/A   Overcast
7:52 AM 46.9 °F - 36.0 °F 66% 29.86 in 10.0 mi NW 17.3 mph 34.5 mph N/A   Overcast
8:52 AM 48.0 °F - 36.0 °F 63% 29.88 in 10.0 mi NW 13.8 mph 28.8 mph N/A   Overcast
9:30 AM 48.9 °F - 37.0 °F 64% 29.88 in 10.0 mi NW 19.6 mph 29.9 mph N/A   Overcast
9:52 AM 48.9 °F - 36.0 °F 61% 29.90 in 10.0 mi NW 20.7 mph 31.1 mph N/A   Overcast
10:52 AM 50.0 °F - 36.0 °F 59% 29.92 in 10.0 mi NW 23.0 mph 34.5 mph N/A   Overcast
11:52 AM 51.1 °F - 36.0 °F 56% 29.94 in 10.0 mi NW 19.6 mph 34.5 mph N/A   Overcast
12:52 PM 52.0 °F - 36.0 °F 54% 29.95 in 10.0 mi NW 15.0 mph 23.0 mph N/A   Overcast
1:52 PM 52.0 °F - 35.1 °F 53% 29.95 in 10.0 mi NW 17.3 mph 26.5 mph N/A   Overcast
2:52 PM 52.0 °F - 35.1 °F 53% 29.96 in 10.0 mi NW 17.3 mph 24.2 mph N/A   Overcast
3:52 PM 52.0 °F - 35.1 °F 53% 29.96 in 10.0 mi NNW 13.8 mph 24.2 mph N/A   Overcast
4:52 PM 53.1 °F - 35.1 °F 50% 29.98 in 10.0 mi NW 16.1 mph 21.9 mph N/A   Overcast
5:52 PM 52.0 °F - 35.1 °F 53% 29.99 in 10.0 mi WNW 9.2 mph - N/A   Overcast
6:52 PM 50.0 °F - 35.1 °F 57% 30.00 in 10.0 mi WNW 8.1 mph - N/A   Clear
7:52 PM 48.0 °F - 35.1 °F 61% 30.01 in 10.0 mi WNW 8.1 mph - N/A   Clear
8:52 PM 46.0 °F 43.9 °F 35.1 °F 66% 30.02 in 10.0 mi WNW 4.6 mph - N/A   Clear
9:52 PM 42.1 °F - 34.0 °F 73% 30.04 in 10.0 mi Calm Calm - N/A   Clear
10:52 PM 43.0 °F 40.3 °F 34.0 °F 71% 30.03 in 10.0 mi WNW 4.6 mph - N/A   Clear
11:52 PM 43.0 °F 40.3 °F 35.1 °F 74% 30.03 in 10.0 mi WNW 4.6 mph - N/A   Clear